Regional Weather Roundup
Issued by NWS

Home | Current Version | Previous Version | Text Only | Print | Product List | Glossary On
Versions: 1 2 3 4 5 6 7 8 9 10 11 12 13 14 15 16 17 18 19 20 21 22 23 24 25 26 27 28 29 30 31 32 33 34 35 36 37 38 39 40 41 42 43 44 45 46 47 48 49 50
000
ASUS43 KOAX 140610
RWRNE

WEATHER ROUNDUP FOR NEBRASKA
NATIONAL WEATHER SERVICE OMAHA NE
100 AM CDT MON JUL 14 2014

NOTES: SATELLITE DATA IS BEING USED TO AUGMENT CLOUD COVER ABOVE
       12000 FEET.
       "FAIR" INDICATES FEW OR NO CLOUDS BELOW 12,000 FEET WITH NO
       SIGNIFICANT WEATHER AND/OR OBSTRUCTIONS TO VISIBILITY.

  * THESE STATIONS DO NOT REPORT WEATHER SUCH AS RAIN...SNOW OR FOG.

NEZ001>004-019>022-054>056-140700-
NEBRASKA PANHANDLE

CITY           SKY/WX    TMP DP  RH WIND       PRES   REMARKS
SCOTTSBLUFF    PTCLDY    71  58  63 NE13      30.18R
6HR MIN TEMP:  68; 6HR MAX TEMP:  86;

ALLIANCE       PTCLDY    63  56  78 NE9       30.18S
6HR MIN TEMP:  63; 6HR MAX TEMP:  84;

CHADRON        CLEAR     63  57  81 CALM      30.18R
6HR MIN TEMP:  62; 6HR MAX TEMP:  84;

KIMBALL        PTCLDY    63  59  87 SW6       30.23S
SIDNEY         CLEAR     63  58  83 SW8       30.21S
6HR MIN TEMP:  63; 6HR MAX TEMP:  79;

$$

NEZ057>060-069>072-079>082-140700-
SOUTHWEST NEBRASKA

CITY           SKY/WX    TMP DP  RH WIND       PRES   REMARKS
NORTH PLATTE   PTCLDY    68  62  81 W3        30.11F
6HR MIN TEMP:  68; 6HR MAX TEMP:  86;

IMPERIAL       CLEAR     64  61  90 W8        30.15F
6HR MIN TEMP:  64; 6HR MAX TEMP:  75;

LEXINGTON      PTCLDY    67  63  86 NW6       30.09R
MCCOOK         CLEAR     67  62  84 W8        30.12S
6HR MIN TEMP:  66; 6HR MAX TEMP:  83;

OGALLALA       CLEAR     62  60  94 W6        30.14S
$$

NEZ005>010-023>029-035>040-094-140700-
NORTH CENTRAL NEBRASKA

CITY           SKY/WX    TMP DP  RH WIND       PRES   REMARKS
VALENTINE      MOCLDY    69  56  62 NE8       30.13R
6HR MIN TEMP:  69; 6HR MAX TEMP:  85;

AINSWORTH      MOCLDY    67  58  73 NW5       30.13R
BROKEN BOW     PTCLDY    68  65  90 CALM      30.07F
6HR MIN TEMP:  66; 6HR MAX TEMP:  84;

O`NEILL        MOCLDY    66  58  73 N7        30.09R
ORD            MOCLDY    65  63  93 NW6       30.05R
6HR MIN TEMP:  64; 6HR MAX TEMP:  83;

THEDFORD       MOCLDY    70  60  70 NE6       30.14R
$$

NEZ041-046>049-061>064-073>077-083>087-140700-
SOUTH CENTRAL NEBRASKA

CITY           SKY/WX    TMP DP  RH WIND       PRES   REMARKS
GRAND ISLAND   CLEAR     68  64  87 SW6       30.04S
6HR MIN TEMP:  68; 6HR MAX TEMP:  86;

AURORA         CLEAR     68  67  96 SW7       30.03S
HASTINGS       CLEAR     71  64  78 CALM      30.05S
6HR MIN TEMP:  71; 6HR MAX TEMP:  87;

HEBRON         CLEAR     71  68  89 CALM      30.03S
HOLDREGE       CLEAR     72  60  66 W6        30.07S
KEARNEY *      CLEAR     72  63  73 CALM      30.07S
YORK           CLEAR     68  68 100 SW6       30.02F
$$

NEZ011>018-030>034-042>045-140700-
NORTHEAST NEBRASKA

CITY           SKY/WX    TMP DP  RH WIND       PRES   REMARKS
NORFOLK        PTCLDY    70  57  63 N8        30.03R
6HR MIN TEMP:  67; 6HR MAX TEMP:  84;

ALBION         LGT RAIN  67  64  89 N3        30.05R
BLAIR          CLEAR     72  64  76 W6        29.98S
FREMONT        CLEAR     71  68  90 W5        29.99S
TEKAMAH        MOCLDY    73  64  73 NW9       29.98R
6HR MIN TEMP:  69; 6HR MAX TEMP:  85;

WAYNE          DRIZZLE   68  62  80 NW5       30.04R
$$

NEZ050>053-065>068-078-088>093-140700-
SOUTHEAST NEBRASKA

CITY           SKY/WX    TMP DP  RH WIND       PRES   REMARKS
LINCOLN        CLEAR     69  65  86 S5        30.00F
6HR MIN TEMP:  69; 6HR MAX TEMP:  88;

OMAHA EPPLEY   CLEAR     73  68  84 CALM      29.97S
6HR MIN TEMP:  72; 6HR MAX TEMP:  83; 6HR PCP: TRACE;

BEATRICE       CLEAR     67  66  95 CALM      30.01S
FALLS CITY     CLEAR     71  69  93 CALM      29.98S
6HR MIN TEMP:  70; 6HR MAX TEMP:  87; 6HR PCP:  0.09;

NEBRASKA CITY  CLEAR     69  69 100 SW5       29.98F
PLATTSMOUTH    CLEAR     72  66  83 SW6       29.98S
$$

NEZ044-045-051>053-067-140700-
OMAHA AREA

CITY           SKY/WX    TMP DP  RH WIND       PRES   REMARKS
OMAHA EPPLEY   CLEAR     73  68  84 CALM      29.97S
6HR MIN TEMP:  72; 6HR MAX TEMP:  83; 6HR PCP: TRACE;

BLAIR          CLEAR     72  64  76 W6        29.98S
FREMONT        CLEAR     71  68  90 W5        29.99S
MILLARD        CLEAR     70  69  94 CALM      29.97S
OFFUTT AFB     CLEAR     68  68 100 CALM      29.96F
PLATTSMOUTH    CLEAR     72  66  83 SW6       29.98S
WAHOO          FAIR      71  66  82 W5        29.98S
$$


USA.gov is the U.S. government's official web portal to all federal, state and local government web resources and services.